Location: Goettingen
(51.5300°N, 9.9433°E)
Time: 20:01:35
(UTC+02:00)

ISS - Pass Details

Date: 19 July 2019
Orbit: 409 x 418 km, 51.6° (Epoch: 20 July)

Event Time Altitude Azimuth Distance (km) Brightness Sun altitude
Rises 23:49:29 0° 257° (WSW) 2,350 0.2 -14.6°
Reaches altitude 10° 23:51:35 10° 257° (WSW) 1,487 -0.9 -14.8°
Maximum altitude 23:54:55 83° 172° (S) 422 -3.9 -15.0°
Drops below altitude 10° 23:58:15 10° 82° (E) 1,484 -1.1 -15.2°
Sets 00:00:20 0° 82° (E) 2,346 -0.1 -15.3°
